Terminal Aerodrome Forecast
Issued by NWS Central Illinois

Home | Current Version | Previous Version | Text Only | Print | Product List | Glossary On
Versions: 1 2 3 4 5 6 7 8 9 10 11 12 13 14 15 16 17 18 19
000
FTUS43 KILX 240531
TAFPIA
TAF
KPIA 240531Z 2406/2506 29006KT P6SM FEW250
     FM241500 31010G20KT P6SM FEW250
     FM250100 29006KT P6SM FEW250=

USA.gov is the U.S. government's official web portal to all federal, state and local government web resources and services.